Flag for U.S.A. Weather past 2 weeks in Kilgore, Texas, U.S.A.

Now
80 °F

Partly sunny.


Feels Like: 84 °F
Forecast: 68 / 92 °F
Wind: 5 mph from South

Location: Gregg County Airport

Current Time: Sep 3, 2015 at 10:24:24 AM

Latest Report: Sep 3, 2015 at 9:53 AM


Visibility: 10 mi

Pressure: 29.98 "Hg

Humidity: 76%

Dew point: 72 °F

Location of KilgoreLocation

Historic Weather in Kilgore — Graph

°F

Kilgore temperature yesterday

Maximum temperature yesterday: 91 °F (at 2:53 PM)
Minimum temperature yesterday: 71 °F (at 4:53 AM)
Average temperature yesterday: 80 °F

Past Weeks' High & Low Weather Summary

 TemperatureHumidityPressure
High96 °F (Aug 24, 4:53 PM)97% (Aug 21, 6:53 AM)30.14 "Hg (Aug 21, 6:53 AM)
Low65 °F (Aug 26, 5:01 AM)34% (Aug 26, 1:53 PM)29.75 "Hg (Aug 19, 3:53 PM)
Average79 °F74%29.99 "Hg
* Reported Aug 19 8:53 AM — Sep 3 8:53 AM, Kilgore, Weather by CustomWeather, © 2015

Note: Actual official high and low records may vary slightly from our data, if they occured in-between our weather recording intervals... More about our weather records

Advertising

Kilgore weather history for previous 24 hours

 ConditionsComfort  
Time TempWeatherWind HumidityBarometerVisibility
8:53 AM
Thu, Sep 3
75 °FLow clouds.6 mph90%29.99 "Hg10 mi
7:53 AM74 °FPassing clouds.No wind88%29.98 "Hg10 mi
6:53 AM71 °FClear.No wind90%29.97 "Hg10 mi
5:53 AM70 °FClear.No wind93%29.96 "Hg10 mi
4:53 AM72 °FClear.No wind87%29.96 "Hg10 mi
3:53 AM72 °FClear.No wind87%29.95 "Hg10 mi
2:53 AM73 °FClear.No wind84%29.94 "Hg10 mi
1:53 AM76 °FClear.3 mph77%29.94 "Hg10 mi
12:53 AM76 °FClear.6 mph77%29.94 "Hg10 mi
11:53 PM
Wed, Sep 2
76 °FClear.5 mph80%29.94 "Hg10 mi
10:53 PM77 °FClear.6 mph82%29.95 "Hg10 mi
9:53 PM79 °FClear.No wind74%29.94 "Hg10 mi
8:53 PM80 °FClear.No wind71%29.93 "Hg10 mi
7:53 PM84 °FPassing clouds.5 mph61%29.93 "Hg10 mi
6:53 PM90 °FPassing clouds.6 mph43%29.92 "Hg10 mi
5:53 PM91 °FScattered clouds.8 mph44%29.93 "Hg10 mi
4:53 PM91 °FScattered clouds.No wind45%29.94 "Hg10 mi
3:53 PM91 °FPassing clouds.7 mph45%29.97 "Hg10 mi
2:53 PM91 °FScattered clouds.8 mph45%29.99 "Hg10 mi
1:53 PM89 °FScattered clouds.5 mph45%30.02 "Hg10 mi
12:53 PM88 °FScattered clouds.6 mph55%30.03 "Hg10 mi
11:53 AM86 °FScattered clouds.No wind61%30.05 "Hg10 mi
10:53 AM82 °FPassing clouds.No wind70%30.06 "Hg10 mi
Weather by CustomWeather, © 2015

See weather overviewHow to use our weather pages